Lid_Strength_Index
15 15 15 14 13 13 13 14 15 16 15 14 15 15 15 15 14 15 14 11 9 8 6 4 4 4 4 4 4 5 4 4 4 4 5 5 5 5
16 16 15 14 14 13 13 13 14 15 16 15 13 15 14 14 14 14 15 13 11 10 8 6 5 5 5 5 5 5 5 4 4 4 5 5 5 5
16 16 16 15 15 15 14 14 14 14 16 15 14 13 14 14 13 15 14 14 14 11 10 8 7 6 5 5 6 6 6 6 5 5 5 5 6 5
16 15 15 14 15 15 16 15 14 14 14 16 15 14 14 13 14 14 14 14 14 12 11 10 9 7 6 6 6 6 6 6 6 5 6 6 6 6
15 15 15 15 15 15 15 15 15 14 14 15 15 14 14 13 14 14 14 14 14 12 11 10 10 9 8 7 7 7 7 7 7 7 7 6 6 6
14 14 14 15 15 15 15 14 14 15 14 14 15 15 14 13 14 13 14 14 14 14 13 12 11 10 9 8 8 8 8 8 8 7 7 7 7 7
13 13 13 13 12 12 14 14 14 15 15 14 15 14 15 15 14 13 14 13 13 14 14 15 14 13 13 10 10 9 8 8 8 8 8 8 8 8
15 15 14 14 13 12 11 12 12 14 15 15 15 15 15 14 13 13 13 14 15 13 14 14 14 15 14 12 10 9 8 8 8 8 8 8 8 8
15 15 15 15 15 15 14 13 13 12 12 15 16 16 15 14 13 13 13 13 14 12 13 14 14 15 14 13 10 9 8 8 8 8 8 8 8 8
16 16 16 16 15 15 15 15 14 14 14 13 14 15 14 14 13 13 13 13 12 12 13 14 13 14 14 14 10 9 8 8 8 8 8 8 8 9
16 16 16 16 14 13 14 15 15 14 12 11 11 10 10 10 10 12 14 14 15 13 12 13 13 13 13 14 13 9 8 7 7 8 8 8 8 8
15 15 14 14 12 12 13 15 16 15 14 14 14 13 12 12 11 11 12 14 14 14 11 13 13 15 16 13 13 13 11 9 8 7 7 7 8 9
15 15 15 13 12 12 11 13 14 13 13 13 13 13 13 13 13 12 11 12 13 13 10 11 11 12 13 16 14 13 12 12 11 9 7 7 7 8
15 14 14 12 11 10 10 10 9 9 12 14 15 15 15 15 14 13 12 12 12 10 9 9 11 11 13 13 14 14 13 12 11 11 10 9 7 7
12 12 10 10 10 11 11 10 11 13 14 15 15 15 14 14 13 13 13 13 14 12 10 9 9 10 11 12 13 16 15 14 12 11 10 10 10 9
11 12 13 13 13 13 14 13 14 13 14 15 15 14 14 14 15 14 15 15 15 15 12 9 8 8 10 10 11 16 13 15 13 12 11 10 9 9
14 17 20 20 20 19 18 17 16 15 16 15 15 16 15 15 15 14 14 15 17 16 15 10 8 8 8 9 10 11 12 13 13 12 11 11 9 9
20 24 23 22 22 21 21 20 19 18 17 16 16 15 15 15 15 14 14 15 16 15 14 10 8 9 9 8 7 10 11 12 12 11 11 11 11 9
27 25 25 24 23 22 22 21 20 18 17 16 16 16 14 14 14 15 14 13 13 13 12 8 9 10 12 13 16 7 9 10 11 11 10 10 11 10
31 26 25 24 23 23 22 21 20 19 18 17 16 14 13 14 15 14 14 14 11 9 9 9 9 10 11 12 13 16 7 10 11 11 11 10 10 8
24 24 23 22 22 21 21 20 20 19 18 17 15 14 13 14 15 14 13 12 11 10 11 12 11 8 8 10 13 17 15 7 9 11 10 11 13 14
24 23 22 21 21 20 20 19 19 18 18 17 16 15 12 12 14 14 13 13 12 10 10 11 12 11 11 12 13 18 15 11 8 8 9 10 13 16
23 23 22 21 20 19 19 19 19 18 17 16 16 15 14 13 11 11 11 10 10 10 11 13 13 11 11 11 14 15 14 12 12 14 13 10 12 11